TimeCDT,TemperatureF,Dew PointF,Humidity,Sea Level PressureIn,VisibilityMPH,Wind Direction,Wind SpeedMPH,Gust SpeedMPH,PrecipitationIn,Events,Conditions,WindDirDegrees,DateUTC
12:15 AM,59.0,48.2,67,29.84,0.2,SE,5.8,-,N/A,,Haze,130,2013-09-09 05:15:00
12:35 AM,59.0,46.4,63,29.84,0.5,SSE,5.8,-,N/A,,Haze,150,2013-09-09 05:35:00
12:55 AM,59.0,44.6,59,29.84,0.2,SSE,8.1,-,N/A,,Haze,150,2013-09-09 05:55:00
1:15 AM,59.0,44.6,59,29.82,0.2,SE,6.9,-,N/A,,Haze,130,2013-09-09 06:15:00
1:35 AM,59.0,44.6,59,29.82,0.5,SE,5.8,-,N/A,,Haze,130,2013-09-09 06:35:00
1:55 AM,59.0,44.6,59,29.82,1.2,SSE,8.1,-,N/A,,Haze,150,2013-09-09 06:55:00
2:15 AM,59.0,44.6,59,29.80,0.5,ESE,5.8,-,N/A,,Haze,120,2013-09-09 07:15:00
2:35 AM,59.0,44.6,59,29.80,0.5,SSE,5.8,-,N/A,,Haze,150,2013-09-09 07:35:00
2:55 AM,59.0,44.6,59,29.79,0.2,SSE,5.8,-,N/A,,Haze,160,2013-09-09 07:55:00
3:15 AM,59.0,44.6,59,29.75,0.5,ESE,4.6,-,N/A,,Haze,110,2013-09-09 08:15:00
3:35 AM,59.0,44.6,59,29.75,0.2,SE,5.8,-,N/A,,Haze,140,2013-09-09 08:35:00
3:55 AM,59.0,44.6,59,29.75,0.2,Calm,Calm,-,N/A,,Haze,0,2013-09-09 08:55:00
4:15 AM,59.0,44.6,59,29.75,0.2,Calm,Calm,-,N/A,,Haze,0,2013-09-09 09:15:00
4:35 AM,59.0,44.6,59,29.76,0.2,Calm,Calm,-,N/A,,Haze,0,2013-09-09 09:35:00
4:55 AM,59.0,44.6,59,29.76,0.2,NE,4.6,-,N/A,,Haze,50,2013-09-09 09:55:00
5:15 AM,59.0,44.6,59,29.77,0.5,East,3.5,-,0.01,Rain,Light Rain,80,2013-09-09 10:15:00
5:35 AM,59.0,44.6,59,29.77,1.0,East,5.8,-,0.04,Rain,Light Rain,90,2013-09-09 10:35:00
5:55 AM,59.0,44.6,59,29.75,2.0,East,8.1,-,0.06,Rain,Light Rain,90,2013-09-09 10:55:00
6:15 AM,59.0,44.6,59,29.74,3.0,East,8.1,-,0.01,Rain,Light Rain,80,2013-09-09 11:15:00
6:35 AM,59.0,44.6,59,29.73,5.0,East,9.2,-,0.02,Rain,Light Rain,80,2013-09-09 11:35:00
6:55 AM,59.0,44.6,59,29.72,5.0,ENE,8.1,-,0.04,Rain,Light Rain,70,2013-09-09 11:55:00
7:15 AM,59.0,44.6,59,29.71,7.0,ENE,10.4,-,N/A,Rain,Light Rain,70,2013-09-09 12:15:00
7:35 AM,59.0,44.6,59,29.71,5.0,NE,9.2,-,N/A,Rain,Light Rain,50,2013-09-09 12:35:00
7:55 AM,59.0,44.6,59,29.70,4.0,NE,10.4,-,N/A,Rain,Light Rain,40,2013-09-09 12:55:00
8:15 AM,59.0,44.6,59,29.69,6.0,NE,11.5,-,N/A,,Haze,40,2013-09-09 13:15:00
8:35 AM,59.0,44.6,59,29.69,0.5,NE,13.8,-,N/A,,Haze,40,2013-09-09 13:35:00
8:55 AM,59.0,44.6,59,29.70,0.8,NE,11.5,-,N/A,,Haze,40,2013-09-09 13:55:00
9:15 AM,59.0,44.6,59,29.71,5.0,ENE,6.9,-,N/A,,Haze,60,2013-09-09 14:15:00
9:35 AM,59.0,44.6,59,29.72,5.0,NE,8.1,-,N/A,,Haze,50,2013-09-09 14:35:00
9:55 AM,59.0,44.6,59,29.72,6.0,NE,6.9,-,N/A,,Haze,50,2013-09-09 14:55:00
10:15 AM,59.0,44.6,59,29.72,5.0,ENE,6.9,-,N/A,,Haze,70,2013-09-09 15:15:00
10:35 AM,60.8,44.6,55,29.72,8.0,ENE,9.2,-,N/A,,Overcast,60,2013-09-09 15:35:00
10:55 AM,60.8,44.6,55,29.72,9.0,ENE,9.2,-,N/A,,Overcast,60,2013-09-09 15:55:00
11:15 AM,60.8,44.6,55,29.73,10.0,ENE,10.4,-,N/A,,Overcast,60,2013-09-09 16:15:00
11:35 AM,60.8,44.6,55,29.73,9.0,ENE,6.9,-,N/A,,Overcast,70,2013-09-09 16:35:00
11:55 AM,60.8,44.6,55,29.73,3.0,NE,8.1,-,N/A,,Haze,50,2013-09-09 16:55:00
12:15 PM,60.8,44.6,55,29.74,3.0,NE,9.2,-,N/A,,Haze,40,2013-09-09 17:15:00
12:35 PM,60.8,44.6,55,29.74,7.0,NE,8.1,-,N/A,,Overcast,40,2013-09-09 17:35:00
12:55 PM,59.0,44.6,59,29.74,1.5,NNE,6.9,-,0.02,Rain,Light Rain,20,2013-09-09 17:55:00
1:15 PM,60.8,44.6,55,29.74,3.0,NNE,9.2,-,N/A,Rain,Light Rain,20,2013-09-09 18:15:00
1:35 PM,60.8,44.6,55,29.73,2.5,NE,8.1,-,0.04,Rain,Light Rain,40,2013-09-09 18:35:00
1:55 PM,62.6,46.4,55,29.72,7.0,NNE,10.4,-,0.05,Rain,Light Rain,30,2013-09-09 18:55:00
2:15 PM,62.6,46.4,55,29.72,5.0,NNE,9.2,-,0.01,Rain,Light Rain,20,2013-09-09 19:15:00
2:35 PM,62.6,46.4,55,29.73,10.0,NNE,6.9,-,0.01,Rain,Light Rain,20,2013-09-09 19:35:00
2:55 PM,62.6,46.4,55,29.74,10.0,North,9.2,-,0.01,,Overcast,360,2013-09-09 19:55:00
3:15 PM,62.6,46.4,55,29.74,10.0,North,8.1,-,N/A,,Overcast,350,2013-09-09 20:15:00
3:35 PM,62.6,46.4,55,29.74,10.0,NNW,6.9,-,N/A,,Overcast,340,2013-09-09 20:35:00
3:55 PM,62.6,46.4,55,29.74,10.0,North,8.1,-,N/A,,Overcast,350,2013-09-09 20:55:00
4:15 PM,62.6,46.4,55,29.74,10.0,North,8.1,-,N/A,,Overcast,360,2013-09-09 21:15:00
4:35 PM,62.6,46.4,55,29.75,10.0,North,6.9,-,N/A,Rain,Light Rain,350,2013-09-09 21:35:00
4:55 PM,62.6,46.4,55,29.75,10.0,North,5.8,-,N/A,,Overcast,10,2013-09-09 21:55:00
5:15 PM,62.6,46.4,55,29.75,10.0,North,8.1,-,N/A,,Overcast,360,2013-09-09 22:15:00
5:35 PM,62.6,46.4,55,29.75,10.0,NNW,5.8,-,N/A,,Overcast,340,2013-09-09 22:35:00
5:55 PM,62.6,46.4,55,29.76,10.0,North,5.8,-,N/A,,Overcast,350,2013-09-09 22:55:00
6:15 PM,62.6,46.4,55,29.76,10.0,NNW,3.5,-,N/A,,Overcast,330,2013-09-09 23:15:00
6:35 PM,62.6,46.4,55,29.76,10.0,NNW,4.6,-,N/A,,Overcast,340,2013-09-09 23:35:00
6:55 PM,62.6,46.4,55,29.76,10.0,North,4.6,-,N/A,,Overcast,350,2013-09-09 23:55:00
7:15 PM,62.6,46.4,55,29.77,10.0,NNW,4.6,-,N/A,,Overcast,330,2013-09-10 00:15:00
7:35 PM,62.6,46.4,55,29.77,10.0,NW,4.6,-,N/A,,Overcast,320,2013-09-10 00:35:00
7:55 PM,62.6,46.4,55,29.78,10.0,North,3.5,-,N/A,,Overcast,350,2013-09-10 00:55:00
8:15 PM,62.6,46.4,55,29.78,10.0,NNW,3.5,-,N/A,,Overcast,330,2013-09-10 01:15:00
8:35 PM,62.6,46.4,55,29.78,10.0,North,3.5,-,N/A,,Overcast,10,2013-09-10 01:35:00
8:55 PM,62.6,46.4,55,29.77,10.0,Calm,Calm,-,N/A,,Overcast,0,2013-09-10 01:55:00
9:15 PM,60.8,44.6,55,29.78,10.0,NNE,3.5,-,N/A,,Mostly Cloudy,20,2013-09-10 02:15:00
9:35 PM,59.0,44.6,59,29.78,10.0,ENE,3.5,-,N/A,,Clear,60,2013-09-10 02:35:00
9:55 PM,57.2,42.8,59,29.79,7.0,Calm,Calm,-,N/A,,Partly Cloudy,0,2013-09-10 02:55:00
10:15 PM,57.2,41.0,55,29.78,5.0,Calm,Calm,-,N/A,,Haze,0,2013-09-10 03:15:00
10:35 PM,57.2,41.0,55,29.79,7.0,SE,3.5,-,N/A,,Overcast,140,2013-09-10 03:35:00
10:55 PM,57.2,41.0,55,29.80,4.0,SW,5.8,-,N/A,Thunderstorm,Haze,230,2013-09-10 03:55:00
11:15 PM,59.0,44.6,59,29.81,1.5,Calm,Calm,-,0.03,Rain-Thunderstorm,Light Thunderstorms and Rain,0,2013-09-10 04:15:00
11:35 PM,59.0,44.6,59,29.82,3.0,NW,4.6,-,0.05,Rain-Thunderstorm,Light Rain,310,2013-09-10 04:35:00
11:55 PM,59.0,44.6,59,29.79,4.0,ENE,4.6,-,0.06,Rain-Thunderstorm,Light Rain,70,2013-09-10 04:55:00